Location: Boda
(47.1872°N, 9.5454°E)
Time: 18:40:47
(UTC+00:00)

USA 281 - Pass Details

Date: 14 May 2021
Orbit: 1078 x 1081 km, 106.0° (Epoch: 14 June)

Event Time Altitude Azimuth Distance (km) Brightness Sun altitude
Exits shadow 01:28:40 27° 198° (SSW) 1,957 4.0 -17.9°
Maximum altitude 01:31:52 44° 252° (WSW) 1,460 3.6 -17.6°
Drops below altitude 10° 01:38:06 10° 324° (NW) 2,930 5.7 -17.0°
Sets 01:40:47 0° 331° (NNW) 3,890 6.5 -16.8°
